HFD weather

Hartford Brainard Airport
Hartford, Connecticut, United States

Public forecast

Using degrees Fahrenheit for public forecast. Weather courtesy of forecast.io.

Current aviation weather report (METAR) for Hartford Brainard Airport

Retrieved 2019/10/17 14:53 UTC (14 minutes ago):

KHFD 171453Z 26013G24KT 220V290 10SM BKN039 12/04 A2913 RMK AO2 PK WND 25030/1440 SLP866 T01220044 51002

Closest aviation forecast (TAF) to Hartford Brainard Airport

Forecast is more than 12 hours old.

Closest forecast is Kaman Aerospace Corp Heliport, 7.9 nm (14.5 km) NNW. Retrieved 2017/05/24 06:18 UTC (2 years ago):

TAF HTZA 240500Z 2406/2506 22010KT 9999 BKN016 KVA1683 240550 GG HAABYMYX 240535 VTBBYPYX 240522 FTAE33 VTBB 240500 TAF VLLB 240500Z 2406/2506 27004KT 9999 SCT020 SCT05 240500Z 2406/2506 18004KT 9000 SCT020 BKN100 TEMPO 2410/2413 8000 TS SCT016 FEW023CB BKN100